N9902S KDAL-KHOU

Flight info

Callsign N9902S
Flight time 0h 43m
Altitude 33000
Route CURLO6 ELLVR NNEAL KIDDZ5
Aircraft C700/M-SBDGHM1RWXY/LB2

Departure

Time 2026-04-30 02:26
Airport Dallas Love Field (KDAL)

Arrival

Time 2026-04-30 03:09
Airport William P. Hobby Airport (KHOU)
Time Latitude Longitude Altitude Speed Heading
2026-04-30 02:14 32.85578 -96.85131 484 ft 0 kts 141°
2026-04-30 02:21 32.85578 -96.85130 484 ft 0 kts 141°
2026-04-30 02:22 32.85575 -96.85128 484 ft 3 kts 144°
2026-04-30 02:22 32.85498 -96.85110 478 ft 20 kts 177°
2026-04-30 02:22 32.85384 -96.85100 484 ft 18 kts 133°
2026-04-30 02:23 32.85265 -96.84963 486 ft 29 kts 135°
2026-04-30 02:23 32.85120 -96.84794 486 ft 30 kts 137°
2026-04-30 02:23 32.84975 -96.84625 486 ft 28 kts 135°
2026-04-30 02:23 32.84834 -96.84461 487 ft 30 kts 136°
2026-04-30 02:24 32.84696 -96.84303 488 ft 26 kts 136°
2026-04-30 02:24 32.84567 -96.84156 486 ft 22 kts 137°
2026-04-30 02:24 32.84454 -96.84027 489 ft 24 kts 135°
2026-04-30 02:24 32.84344 -96.83894 490 ft 21 kts 135°
2026-04-30 02:25 32.84253 -96.83874 490 ft 15 kts 223°
2026-04-30 02:25 32.84233 -96.83954 484 ft 1 kts 314°
2026-04-30 02:25 32.84278 -96.84006 491 ft 25 kts 316°
2026-04-30 02:25 32.84586 -96.84359 490 ft 108 kts 316°
2026-04-30 02:26 32.85303 -96.85185 830 ft 168 kts 320°
2026-04-30 02:26 32.86194 -96.86257 1906 ft 195 kts 318°
2026-04-30 02:26 32.87186 -96.87442 3189 ft 210 kts 321°
2026-04-30 02:26 32.88299 -96.88700 4462 ft 232 kts 316°
2026-04-30 02:27 32.89579 -96.90039 5697 ft 259 kts 326°
2026-04-30 02:27 32.91273 -96.90854 7291 ft 267 kts 339°
2026-04-30 02:27 32.93155 -96.91091 8853 ft 282 kts 358°
2026-04-30 02:27 32.95121 -96.90569 10329 ft 301 kts 18°
2026-04-30 02:28 32.96920 -96.89053 11338 ft 338 kts 43°
2026-04-30 02:28 32.98098 -96.86590 12684 ft 356 kts 70°
2026-04-30 02:28 32.98398 -96.83625 14028 ft 370 kts 94°
2026-04-30 02:28 32.97725 -96.80649 15216 ft 377 kts 118°
2026-04-30 02:29 32.96339 -96.77978 16423 ft 384 kts 129°
2026-04-30 02:29 32.94609 -96.75536 17546 ft 388 kts 145°
2026-04-30 02:29 32.92263 -96.74069 18659 ft 378 kts 172°
2026-04-30 02:29 32.89702 -96.73874 19747 ft 364 kts 194°
2026-04-30 02:30 32.87205 -96.74320 20906 ft 363 kts 199°
2026-04-30 02:30 32.84694 -96.74833 22010 ft 370 kts 197°
2026-04-30 02:30 32.82107 -96.75191 23064 ft 375 kts 197°
2026-04-30 02:30 32.79616 -96.75964 24016 ft 368 kts 208°
2026-04-30 02:31 32.77222 -96.77066 24919 ft 370 kts 211°
2026-04-30 02:31 32.74790 -96.78148 25842 ft 377 kts 208°
2026-04-30 02:31 32.72233 -96.79003 26738 ft 387 kts 204°
2026-04-30 02:31 32.69598 -96.79773 27583 ft 390 kts 205°
2026-04-30 02:32 32.66987 -96.80660 28399 ft 392 kts 207°
2026-04-30 02:32 32.64398 -96.81609 29204 ft 397 kts 207°
2026-04-30 02:32 32.61718 -96.82534 30039 ft 403 kts 207°
2026-04-30 02:32 32.58987 -96.83433 30726 ft 409 kts 207°
2026-04-30 02:33 32.56239 -96.84361 31353 ft 413 kts 207°
2026-04-30 02:33 32.53463 -96.85321 31953 ft 419 kts 207°
2026-04-30 02:33 32.50644 -96.86286 32534 ft 424 kts 207°
2026-04-30 02:33 32.47787 -96.87252 32992 ft 433 kts 207°
2026-04-30 02:34 32.44834 -96.88263 32993 ft 451 kts 206°
2026-04-30 02:34 32.41758 -96.89314 33004 ft 468 kts 206°
2026-04-30 02:34 32.38605 -96.90373 33001 ft 474 kts 206°
2026-04-30 02:35 32.32181 -96.92400 32999 ft 485 kts 201°
2026-04-30 02:35 32.26515 -96.93041 33001 ft 502 kts 190°
2026-04-30 02:36 32.19456 -96.92204 33000 ft 515 kts 181°
2026-04-30 02:36 32.12363 -96.90977 33001 ft 515 kts 181°
2026-04-30 02:37 32.05254 -96.89737 32996 ft 516 kts 181°
2026-04-30 02:37 31.98132 -96.88502 32986 ft 516 kts 181°
2026-04-30 02:38 31.91067 -96.87279 32976 ft 517 kts 181°
2026-04-30 02:38 31.83940 -96.86045 32976 ft 517 kts 181°
2026-04-30 02:39 31.76808 -96.84814 32977 ft 518 kts 181°
2026-04-30 02:39 31.69666 -96.83432 32980 ft 527 kts 175°
2026-04-30 02:40 31.62573 -96.81205 32976 ft 527 kts 174°
2026-04-30 02:40 31.55466 -96.79031 32974 ft 528 kts 174°
2026-04-30 02:41 31.48407 -96.76825 32971 ft 529 kts 174°
2026-04-30 02:41 31.41297 -96.74642 32961 ft 529 kts 174°
2026-04-30 02:42 31.34166 -96.72433 32945 ft 529 kts 174°
2026-04-30 02:42 31.27048 -96.70245 32944 ft 530 kts 174°
2026-04-30 02:43 31.19917 -96.68025 32941 ft 533 kts 172°
2026-04-30 02:43 31.16410 -96.66536 32769 ft 536 kts 167°
2026-04-30 02:43 31.12966 -96.64995 32089 ft 523 kts 167°
2026-04-30 02:43 31.09599 -96.63530 31407 ft 510 kts 168°
2026-04-30 02:44 31.06310 -96.62104 30748 ft 502 kts 168°
2026-04-30 02:44 31.03046 -96.60670 30091 ft 501 kts 168°
2026-04-30 02:44 30.99779 -96.59230 29388 ft 501 kts 168°
2026-04-30 02:44 30.96565 -96.57812 28740 ft 486 kts 168°
2026-04-30 02:45 30.93460 -96.56444 28134 ft 469 kts 168°
2026-04-30 02:45 30.90446 -96.55132 27520 ft 457 kts 169°
2026-04-30 02:45 30.87488 -96.53849 26922 ft 451 kts 169°
2026-04-30 02:45 30.84569 -96.52574 26333 ft 447 kts 169°
2026-04-30 02:46 30.81666 -96.51302 25740 ft 444 kts 168°
2026-04-30 02:46 30.78783 -96.50043 25151 ft 441 kts 168°
2026-04-30 02:46 30.75919 -96.48795 24576 ft 438 kts 168°
2026-04-30 02:46 30.73084 -96.47559 24009 ft 434 kts 168°
2026-04-30 02:47 30.70268 -96.46331 23420 ft 430 kts 168°
2026-04-30 02:47 30.67490 -96.45120 22823 ft 423 kts 168°
2026-04-30 02:47 30.64751 -96.43924 22240 ft 418 kts 168°
2026-04-30 02:47 30.62039 -96.42740 21690 ft 415 kts 168°
2026-04-30 02:48 30.59375 -96.41470 21142 ft 416 kts 163°
2026-04-30 02:48 30.56778 -96.40011 20599 ft 413 kts 162°
2026-04-30 02:48 30.54190 -96.38593 20055 ft 409 kts 163°
2026-04-30 02:48 30.51628 -96.37210 19521 ft 405 kts 163°
2026-04-30 02:49 30.49124 -96.35841 18996 ft 401 kts 163°
2026-04-30 02:49 30.46585 -96.34443 18446 ft 397 kts 163°
2026-04-30 02:49 30.44104 -96.33087 17881 ft 393 kts 163°
2026-04-30 02:49 30.41646 -96.31747 17333 ft 389 kts 162°
2026-04-30 02:50 30.39228 -96.30455 16801 ft 386 kts 163°
2026-04-30 02:50 30.36785 -96.29186 16268 ft 384 kts 163°
2026-04-30 02:50 30.34358 -96.27914 15734 ft 383 kts 163°
2026-04-30 02:50 30.31943 -96.26631 15209 ft 381 kts 162°
2026-04-30 02:51 30.29539 -96.25357 14682 ft 378 kts 162°
2026-04-30 02:51 30.27149 -96.24099 14153 ft 375 kts 162°
2026-04-30 02:51 30.24782 -96.22854 13647 ft 372 kts 162°
2026-04-30 02:51 30.22437 -96.21620 13119 ft 369 kts 162°
2026-04-30 02:52 30.20111 -96.20388 12635 ft 365 kts 161°
2026-04-30 02:52 30.17816 -96.19159 12151 ft 362 kts 160°
2026-04-30 02:52 30.15539 -96.17941 11750 ft 358 kts 160°
2026-04-30 02:52 30.13307 -96.16751 11742 ft 354 kts 160°
2026-04-30 02:53 30.11048 -96.15545 11748 ft 358 kts 160°
2026-04-30 02:53 30.08788 -96.14336 11754 ft 359 kts 160°
2026-04-30 02:53 30.06523 -96.13124 11779 ft 359 kts 160°
2026-04-30 02:53 30.04279 -96.11852 11797 ft 360 kts 158°
2026-04-30 02:54 30.02042 -96.10558 11818 ft 359 kts 158°
2026-04-30 02:54 29.99804 -96.09287 11838 ft 359 kts 158°
2026-04-30 02:54 29.97568 -96.08012 11855 ft 359 kts 158°
2026-04-30 02:54 29.95331 -96.06726 11873 ft 359 kts 158°
2026-04-30 02:55 29.93098 -96.05445 11867 ft 359 kts 158°
2026-04-30 02:55 29.90884 -96.04180 11737 ft 360 kts 158°
2026-04-30 02:55 29.88647 -96.02900 11545 ft 358 kts 158°
2026-04-30 02:55 29.86419 -96.01626 11336 ft 357 kts 158°
2026-04-30 02:56 29.84203 -96.00358 11118 ft 355 kts 157°
2026-04-30 02:56 29.82025 -95.99069 10903 ft 344 kts 154°
2026-04-30 02:56 29.80023 -95.97725 10707 ft 324 kts 153°
2026-04-30 02:56 29.78086 -95.96441 10505 ft 326 kts 154°
2026-04-30 02:57 29.76092 -95.95147 10297 ft 325 kts 154°
2026-04-30 02:57 29.74171 -95.93878 10084 ft 312 kts 153°
2026-04-30 02:57 29.72321 -95.92655 9902 ft 304 kts 154°
2026-04-30 02:57 29.70456 -95.91454 9640 ft 310 kts 154°
2026-04-30 02:58 29.68600 -95.90184 9361 ft 311 kts 146°
2026-04-30 02:58 29.67059 -95.88479 9090 ft 306 kts 132°
2026-04-30 02:58 29.65902 -95.86448 8822 ft 302 kts 117°
2026-04-30 02:58 29.65181 -95.84194 8554 ft 300 kts 103°
2026-04-30 02:59 29.64916 -95.81830 8277 ft 297 kts 92°
2026-04-30 02:59 29.64820 -95.79470 8029 ft 295 kts 92°
2026-04-30 02:59 29.64698 -95.77125 7776 ft 293 kts 93°
2026-04-30 02:59 29.64583 -95.74790 7525 ft 292 kts 92°
2026-04-30 03:00 29.64474 -95.72474 7282 ft 290 kts 92°
2026-04-30 03:00 29.64361 -95.70167 7031 ft 287 kts 92°
2026-04-30 03:00 29.64258 -95.68018 6794 ft 278 kts 93°
2026-04-30 03:00 29.64148 -95.65829 6556 ft 270 kts 93°
2026-04-30 03:01 29.64046 -95.63706 6299 ft 264 kts 93°
2026-04-30 03:01 29.64086 -95.61626 6035 ft 257 kts 79°
2026-04-30 03:01 29.64636 -95.59705 5786 ft 251 kts 63°
2026-04-30 03:01 29.65592 -95.58060 5520 ft 245 kts 46°
2026-04-30 03:02 29.66787 -95.56697 5278 ft 240 kts 42°
2026-04-30 03:02 29.67926 -95.55375 4947 ft 228 kts 44°
2026-04-30 03:02 29.69039 -95.54083 4667 ft 223 kts 43°
2026-04-30 03:02 29.70125 -95.52821 4275 ft 222 kts 44°
2026-04-30 03:03 29.71223 -95.51578 3911 ft 221 kts 42°
2026-04-30 03:03 29.73423 -95.49166 3146 ft 218 kts 42°
2026-04-30 03:03 29.74528 -95.47983 2774 ft 217 kts 42°
2026-04-30 03:04 29.75650 -95.46817 2372 ft 218 kts 42°
2026-04-30 03:04 29.76668 -95.45545 1991 ft 215 kts 64°
2026-04-30 03:04 29.76868 -95.43925 1918 ft 203 kts 99°
2026-04-30 03:04 29.76441 -95.42387 1921 ft 201 kts 122°
2026-04-30 03:05 29.75593 -95.41115 1923 ft 202 kts 134°
2026-04-30 03:05 29.74629 -95.39915 1927 ft 206 kts 135°
2026-04-30 03:05 29.73644 -95.38738 1928 ft 203 kts 137°
2026-04-30 03:05 29.72648 -95.37566 1942 ft 205 kts 135°
2026-04-30 03:06 29.71685 -95.36398 1914 ft 195 kts 135°
2026-04-30 03:06 29.70810 -95.35372 1686 ft 162 kts 135°
2026-04-30 03:06 29.70100 -95.34511 1488 ft 135 kts 137°
2026-04-30 03:06 29.69460 -95.33761 1317 ft 130 kts 137°
2026-04-30 03:07 29.68856 -95.33031 1149 ft 122 kts 137°
2026-04-30 03:07 29.68280 -95.32350 986 ft 115 kts 138°
2026-04-30 03:07 29.67715 -95.31681 802 ft 119 kts 137°
2026-04-30 03:07 29.67158 -95.31017 676 ft 115 kts 138°
2026-04-30 03:08 29.66601 -95.30369 479 ft 117 kts 136°
2026-04-30 03:08 29.66021 -95.29658 348 ft 127 kts 133°
2026-04-30 03:08 29.65428 -95.28945 234 ft 120 kts 135°
2026-04-30 03:08 29.64878 -95.28294 59 ft 105 kts 135°
2026-04-30 03:09 29.64446 -95.27785 46 ft 70 kts 134°
2026-04-30 03:09 29.64200 -95.27494 46 ft 22 kts 130°
2026-04-30 03:09 29.64234 -95.27413 46 ft 17 kts 42°
2026-04-30 03:09 29.64341 -95.27291 44 ft 22 kts 46°
2026-04-30 03:10 29.64429 -95.27287 46 ft 16 kts 315°
2026-04-30 03:10 29.64534 -95.27408 46 ft 17 kts 327°
2026-04-30 03:10 29.64612 -95.27419 46 ft 0 kts 315°